www.pogodaiklimat.ru
ПОГОДА в Пайквилле
Время
и дата
22:55 13.04
23:15 13.04
23:35 13.04
23:55 13.04
00:15 14.04
00:35 14.04
00:55 14.04
01:15 14.04
01:35 14.04
01:55 14.04
02:15 14.04
02:35 14.04
02:55 14.04
03:15 14.04
03:35 14.04
03:55 14.04
04:15 14.04
04:35 14.04
04:55 14.04
05:15 14.04
05:35 14.04
06:15 14.04
06:35 14.04
06:55 14.04
07:15 14.04
07:35 14.04
07:55 14.04
08:15 14.04
08:35 14.04
08:55 14.04
09:15 14.04
09:35 14.04
09:55 14.04
10:15 14.04
10:35 14.04
10:55 14.04
11:15 14.04
11:35 14.04
11:55 14.04
12:15 14.04
12:35 14.04
12:55 14.04
13:15 14.04
13:35 14.04
13:55 14.04
14:15 14.04
14:55 14.04
15:15 14.04
Ветер
(напр.,м/с)
Видим. Явления Облачность Т
(С)
Тd
(С)
f
(%)
Тe
(С)
Тes
(С)
Комфортность P
(гПа)
Po
(гПа)
Тmin
(С)
Tmax
(С)
R
(мм)
R24
(мм)
S
(см)
штиль 0 16 км ясно +14.0 -0.6 37 +14 +14 966.6
штиль 0 16 км ясно +13.6 -0.5 38 +14 +14 966.6
Ю 2 16 км ясно +13.2 -0.1 40 +13 +13 966.6
Ю 2 16 км ясно +13.1 -0.1 40 +13 +13 966.3
Ю 2 16 км ясно +13.1 -0.3 40 +13 +13 966.3
Ю 2 16 км ясно +12.8 -0.1 41 +12 +12 966.0
Ю 2 16 км ясно +12.9 -0.1 41 +13 +13 966.0 +12.5 +16.2
Ю 2 16 км ясно +12.4 0.0 42 +12 +12 966.0
штиль 0 16 км ясно +12.5 0.0 42 +12 +12 965.6
Ю 2 16 км ясно +12.7 +0.1 42 +12 +12 965.3
Ю 2 16 км ясно +11.7 +0.3 45 +11 +11 965.3
штиль 0 16 км ясно +11.6 +0.5 46 +11 +11 965.3
ЮВ 2 16 км ясно +11.2 +0.6 48 +10 +10 965.0
ЮВ 2 16 км ясно +10.9 +0.8 50 +10 +10 965.0
ЮВ 2 16 км ясно +11.1 +0.8 49 +10 +10 965.0
ЮВ 2 16 км ясно +11.0 +0.9 50 +10 +10 965.0
ЮВ 2 16 км ясно +11.5 +0.7 47 +11 +11 965.0
ЮВ 2 16 км ясно +11.2 +0.9 49 +10 +10 965.0
ЮВ 2 16 км ясно +11.5 +1.0 48 +11 +11 965.0
ЮВ 2 16 км ясно +11.3 +1.2 50 +11 +11 964.7
ЮВ 2 16 км ясно +11.5 +1.5 50 +11 +11 965.0
ЮВ 2 16 км ясно +11.9 +1.8 50 +11 +11 965.3
ЮВ 2 16 км ясно +12.3 +2.1 50 +12 +12 965.6
Ю 2 16 км ясно +13.2 +3.0 50 +13 +13 965.6 +10.9 +13.2
Ю 2 16 км ясно +13.8 +3.4 49 +14 +14 965.6
Ю 2 16 км ясно +14.8 +4.1 49 +15 +16 965.6
Ю 2 16 км ясно +15.8 +4.9 48 +16 +17 965.6
Ю 2 16 км ясно +16.2 +5.1 48 +16 +20 965.3
Ю 3 16 км ясно +17.7 +6.2 47 +18 +21 965.6
Ю 3 16 км ясно +18.9 +7.1 46 +20 +23 965.3
Ю 3 16 км ясно +19.6 +7.3 45 +21 +27 комфорт 965.3
Ю 2 16 км ясно +20.8 +8.0 44 +23 +30 комфорт 965.3
ЮЗ 3 16 км ясно +21.8 +8.0 41 +23 +29 комфорт 965.0
ЮЗ 3 16 км ясно +22.9 +8.4 39 +24 +34 комфорт 965.0
ЮЗ 3 16 км ясно +23.4 +7.8 37 +24 +34 комфорт 964.7
Ю 3 16 км ясно +23.9 +7.7 35 +24 +34 комфорт 964.4
ЮЗ 6
{10}
16 км ясно +24.0 +7.2 34 +24 +30 комфорт 964.0
Ю 2
{8}
16 км ясно +24.5 +7.2 33 +25 +40 комфорт 963.7
З 2 16 км ясно +25.6 +8.1 33 +26 +41 жарко 963.4
ЮЗ 6
{11}
16 км ясно +25.2 +6.7 31 +25 +32 комфорт 963.1
ЮЗ 6
{8}
16 км ясно +25.9 +7.1 30 +26 +33 жарко 962.8
ЮЗ 4
{7}
16 км ясно +26.0 +7.3 30 +26 +37 жарко 962.8 +13.2 +26.0
штиль 0 16 км ясно +26.4 +7.6 30 +26 +49 жарко 962.1
ЮЗ 4 16 км ясно +27.0 +7.5 29 +27 +38 жарко 961.8
ЮЗ 4
{10}
16 км ясно +26.5 +6.6 28 +26 +38 жарко 961.5
ЮЗ 3
{8}
16 км ясно +27.0 +6.0 26 +26 +39 жарко 961.2
ЮЗ 6
{9}
16 км ясно +27.2 +5.0 24 +26 +32 жарко 960.8
ЮЗ 5
{10}
16 км ясно +27.1 +5.1 24 +26 +32 жарко 960.5
Местоположение метеостанции Pikeville Pike County Airport: широта 37.5587 долгота -82.5674 высота над уровнем моря 447 м.
В архиве по умолчанию представлена погода в Пайквилле за последние 1-2 суток. Обновление информации о фактической погоде в базе происходит ежечасно! Архивные данные за месяц целиком и за предыдущие месяцы Вы можете получить, выбрав интересующий диапазон дат из раскрывающегося списка и нажав кнопку "Ввод!".
Внимание! Архив погоды МЕТАР в базе сайта по станциям, не включенным в климатический монитор, хранится не более 60 дней. Нет смысла пытаться выбрать более раннюю дату.
*Определитесь, кто Вы:
Внимание! Время в таблицах - местное (без учета летнего времени). Для получения всемирного времени необходимо вычесть поправку, которая равна -5 ч.
Смотрите также архив погоды в соседних городах и на ближайших метеорологических станциях:
Партнеры нашего сайта:      
Пояснения к столбцам:
  • Ветер - указаны скорость ветра в м/с - средняя за 10 мин, порывы в срок и между сроками (в фигурных скобках) и направление, откуда дует ветер: С - северный,
  • СВ - северо-восточный, В - восточный, ЮВ - юго-восточный, Ю - южный, ЮЗ - юго-западный, З - западный, СЗ - северо-западный.
  • Видимость - горизонтальная дальность видимости в метрах или километрах. При видимости от 1 до 10 км при отсутствии осадков обычно наблюдается дымка, при ухудшении видимости до 1 км и менее - туман. В сухую погоду видимость может ухудшаться дымом, пылью или мглою.
  • Явления - указаны атмосферные явления, наблюдавшиеся в срок или в последний час перед сроком; фигурными скобками обозначены явления, наблюдавшиеся между сроками (за 1-3 часа до срока); квадратными скобками обозначены град или гололедные отложения с указанием их диаметра в мм.
  • Облачность - указаны через наклонную черту общая и нижняя облачность в баллах и высота нижней границы облаков в метрах; квадратными скобками обозначены формы облаков: Ci - перистые, Cs - перисто-слоистые, Cc - перисто-кучевые, Ac - высококучевые, As - высокослоистые, Sc - слоисто-кучевые, Ns - слоисто-дождевые, Cu - кучевые, Cb - кучево-дождевые. Подробнее классификацию облаков см. в Атласе облаков (PDF).
  • T - Температура воздуха - температура, измеренная на высоте 2 м над землей.
  • Td - Температура точки росы - температура, при понижении до которой содержащийся в воздухе водяной пар достигнет насыщения.
  • f - Относительная влажность воздуха - влажноcть воздуха, измеренная на высоте 2 м над землей.
  • Te - Эффективная температура - температура, которую ощущает одетый по сезону человек в тени. Характеристика душности погоды. При расчете учитывается влияние влажности воздуха и скорости ветра на теплоощущения человека.
  • Tes - Эффективная температура на солнце - температура, которую ощущает человек, с поправкой на солнечный нагрев. Характеристика знойности погоды. Зависит от высоты солнца над горизонтом, облачности и скорости ветра. Ночью, в пасмурную погоду, а также при ветре 12 м/с и более поправка равна нулю.
  • P - Атмосферное давление - приведенное к уровню моря атмосферное давление.
  • Po - Атмосферное давление - измеренное на уровне метеостанции атмосферное давление.
  • Tmin - Минимальная температура - минимум температуры воздуха на высоте 2 м над землей.
  • Tmax - Максимальная температура - максимум температуры воздуха на высоте 2 м над землей.
  • R - Количество осадков - Количество выпавших осадков за период времени, мм. При наведении курсора мыши на число - период времени, за который выпало указанное количество осадков.
  • R24 - Количество осадков - Количество выпавших осадков за 24 часа, мм.
  • S - Снежный покров - Высота снежного покрова, см. При наведении курсора мыши на число - состояние снежного покрова и степень покрытия местности в баллах.